Погода в Накхоннайоке

Таиланд     14°11′33″N   101°11′59″E
темп.,
°C
ветер,
м/с
пор.,
м/с
влажн.,
%
обл.,
%
осадки,
мм/ч
давл.,
гПа
погр.,
м
19 апреля, пн
пн1901:00+25в2484100 5.2 1010116
04:00+25всв218420 0.0 100833
07:00+26в2380100 0.0 1010115
10:00+30юв336414 1.8 1011890
13:00+35юв134654 2.6 10072067
16:00+33юв2351100 0.5 1005264
19:00+28св116549 0.6 100616
22:00+26всв118414 3.3 100926
20 апреля, вт
вт2001:00+25св1184100 8.7 100927
04:00+25всв1184100 0.7 100724
07:00+25в1283100 1.2 100984
10:00+30ююв226611 0.0 1011911
13:00+33ююв225354 1.0 10081720
16:00+32в1159100 2.9 1005438
19:00+28св237396 3.4 100782
22:00+27в22795 0.3 100948
21 апреля, ср
ср2101:00+26в238528 1.3 100994
04:00+25св118624 0.1 100830
07:00+26всв128126 0.4 1010112
10:00+32ююв225526 0.1 1010980
13:00+36ююз224286 0.6 10072302
16:00+30ссв4662100 1.0 1005179
19:00+25всв4684100 4.0 1007118
22:00+25св228192 2.4 100938
22 апреля, чт
чт2201:00+25всв118899 6.4 100932
04:00+25всв218764 0.3 100723
07:00+27в12815 0.3 100980
10:00+32ю225915 0.0 1010977
13:00+36юз114614 0.1 10071766
16:00+36юз324036 0.0 10042046
19:00+31вюв225849 0.6 100541
22:00+28ссв11750 1.1 100819
23 апреля, пт
пт2301:00+27св117610 1.3 100714
04:00+27в1181100 0.0 100619
07:00+27вюв127821 0.0 1008118
10:00+32зюз225721 0.1 10091096
13:00+36зюз224217 0.1 10061800
16:00+37ю223693 0.0 10032066
19:00+31в215276 0.0 100425
22:00+29вюв23705 0.2 1008120